| time (UTC) | temp F | wind direction | speed knots | gust knots | rain 1hr in | rain 24hr in | rain mn in | humidity % | barometer mb |
| 20260506050911 | 60 | 341 | 1.7 | 7.0 | 0.00 | 0.00 | 0.00 | 74 | 1008.6 |
| 20260506044824 | 61 | 306 | 1.7 | 7.0 | 0.00 | 0.00 | 0.00 | 74 | 1008.3 |
| 20260506043839 | 61 | 332 | 1.7 | 6.1 | 0.00 | 0.00 | 0.00 | 74 | 1008.4 |
| 20260506042810 | 61 | 40 | 1.7 | 7.0 | 0.00 | 0.00 | 0.00 | 74 | 1008.5 |
| 20260506041816 | 62 | 26 | 2.6 | 7.0 | 0.00 | 0.00 | 0.00 | 73 | 1008.3 |
| 20260506040754 | 62 | 314 | 1.7 | 7.8 | 0.00 | 0.00 | 0.00 | 74 | 1008.2 |
| 20260506035747 | 62 | 346 | 1.7 | 7.8 | 0.00 | 0.00 | 0.00 | 74 | 1008.1 |
| 20260506034713 | 63 | 5 | 1.7 | 7.0 | 0.00 | 0.00 | 0.00 | 73 | 1007.8 |
| 20260506032524 | 64 | 0 | 1.7 | 7.0 | 0.00 | 0.00 | 0.00 | 73 | 1007.4 |
| 20260506031505 | 64 | 13 | 2.6 | 7.8 | 0.00 | 0.00 | 0.00 | 73 | 1007.2 |
| 20260506030441 | 65 | 19 | 1.7 | 8.7 | 0.00 | 0.00 | 0.00 | 72 | 1007.3 |
| 20260506025453 | 65 | 44 | 1.7 | 8.7 | 0.00 | 0.00 | 0.00 | 72 | 1007.1 |
| 20260506024502 | 65 | 339 | 1.7 | 7.0 | 0.00 | 0.00 | 0.00 | 71 | 1007.0 |
| 20260506022355 | 67 | 9 | 2.6 | 7.8 | 0.00 | 0.00 | 0.00 | 70 | 1006.3 |
| 20260506021325 | 68 | 9 | 0.9 | 7.0 | 0.00 | 0.00 | 0.00 | 71 | 1005.9 |
| 20260506020328 | 68 | 35 | 0.9 | 5.2 | 0.00 | 0.00 | 0.00 | 71 | 1005.7 |
| 20260506015330 | 68 | 5 | 0.9 | 4.3 | 0.00 | 0.00 | 0.00 | 70 | 1005.3 |
| 20260506014252 | 68 | 13 | 0.9 | 4.3 | 0.00 | 0.00 | 0.00 | 69 | 1005.2 |
| 20260506013238 | 68 | 30 | 0.9 | 3.5 | 0.00 | 0.00 | 0.00 | 68 | 1005.3 |
| 20260506012218 | 68 | 37 | 0.9 | 9.6 | 0.00 | 0.00 | 0.00 | 68 | 1005.0 |
| 20260506011202 | 69 | 34 | 2.6 | 9.6 | 0.00 | 0.00 | 0.00 | 67 | 1004.9 |
| 20260506010131 | 69 | 32 | 0.9 | 7.8 | 0.00 | 0.00 | 0.00 | 67 | 1004.4 |
| 20260506005109 | 70 | 344 | 2.6 | 8.7 | 0.00 | 0.00 | 0.00 | 66 | 1004.4 |
| 20260506004100 | 71 | 0 | 2.6 | 8.7 | 0.00 | 0.00 | 0.00 | 66 | 1003.8 |
| 20260506003119 | 72 | 13 | 1.7 | 7.8 | 0.00 | 0.00 | 0.00 | 65 | 1003.7 |
| 20260506002125 | 72 | 47 | 1.7 | 7.8 | 0.00 | 0.00 | 0.00 | 65 | 1003.5 |
| 20260506001056 | 73 | 323 | 2.6 | 7.0 | 0.00 | 0.00 | 0.00 | 64 | 1003.6 |
| 20260505235053 | 74 | 30 | 2.6 | 9.6 | 0.00 | 0.00 | 0.00 | 63 | 1003.6 |
| 20260505232928 | 76 | 34 | 2.6 | 8.7 | 0.00 | 0.00 | 0.00 | 62 | 1003.4 |
| 20260505231927 | 77 | 27 | 2.6 | 8.7 | 0.00 | 0.00 | 0.00 | 61 | 1003.1 |
| 20260505230922 | 79 | 10 | 2.6 | 8.7 | 0.00 | 0.00 | 0.00 | 59 | 1003.1 |
| 20260505225928 | 80 | 332 | 1.7 | 7.0 | 0.00 | 0.00 | 0.00 | 60 | 1003.0 |
| 20260505224943 | 81 | 317 | 2.6 | 7.0 | 0.00 | 0.00 | 0.00 | 58 | 1002.8 |
| 20260505223924 | 82 | 302 | 1.7 | 7.0 | 0.00 | 0.00 | 0.00 | 58 | 1002.4 |
| 20260505222907 | 83 | 319 | 1.7 | 6.1 | 0.00 | 0.00 | 0.00 | 56 | 1002.5 |
| 20260505221924 | 84 | 351 | 1.7 | 6.1 | 0.00 | 0.00 | 0.00 | 53 | 1002.1 |
| 20260505220926 | 85 | 325 | 1.7 | 7.0 | 0.00 | 0.00 | 0.00 | 53 | 1002.2 |
| 20260505215936 | 85 | 327 | 1.7 | 7.0 | 0.00 | 0.00 | 0.00 | 54 | 1002.1 |
| 20260505214946 | 85 | 335 | 1.7 | 6.1 | 0.00 | 0.00 | 0.00 | 51 | 1001.9 |
| 20260505213941 | 86 | 0 | 2.6 | 6.1 | 0.00 | 0.00 | 0.00 | 47 | 1002.1 |
| 20260505211903 | 87 | 319 | 1.7 | 7.0 | 0.00 | 0.00 | 0.00 | 45 | 1001.9 |
| 20260505210838 | 87 | 285 | 1.7 | 6.1 | 0.00 | 0.00 | 0.00 | 49 | 1002.0 |
| 20260505205854 | 87 | 290 | 1.7 | 6.1 | 0.00 | 0.00 | 0.00 | 54 | 1002.1 |
| 20260505204847 | 88 | 240 | 1.7 | 5.2 | 0.00 | 0.00 | 0.00 | 55 | 1002.1 |
| 20260505203905 | 88 | 205 | 2.6 | 7.0 | 0.00 | 0.00 | 0.00 | 57 | 1002.1 |
| 20260505202911 | 88 | 244 | 1.7 | 8.7 | 0.00 | 0.00 | 0.00 | 59 | 1002.2 |
| 20260505201836 | 88 | 271 | 2.6 | 8.7 | 0.00 | 0.00 | 0.00 | 57 | 1002.4 |
| 20260505200836 | 87 | 236 | 2.6 | 8.7 | 0.00 | 0.00 | 0.00 | 55 | 1002.7 |
| 20260505195853 | 87 | 227 | 2.6 | 7.8 | 0.00 | 0.00 | 0.00 | 57 | 1002.5 |
| 20260505194838 | 87 | 216 | 2.6 | 10.4 | 0.00 | 0.00 | 0.00 | 59 | 1002.5 |
| 20260505193820 | 86 | 227 | 2.6 | 10.4 | 0.00 | 0.00 | 0.00 | 61 | 1002.7 |
| 20260505192833 | 86 | 217 | 2.6 | 8.7 | 0.00 | 0.00 | 0.00 | 61 | 1002.8 |
| 20260505191851 | 86 | 217 | 2.6 | 7.8 | 0.00 | 0.00 | 0.00 | 63 | 1002.5 |
| 20260505190837 | 85 | 194 | 3.5 | 7.8 | 0.00 | 0.00 | 0.00 | 61 | 1002.6 |
| 20260505185855 | 85 | 198 | 1.7 | 7.0 | 0.00 | 0.00 | 0.00 | 64 | 1002.6 |
| 20260505184819 | 84 | 172 | 2.6 | 9.6 | 0.00 | 0.00 | 0.00 | 66 | 1002.5 |
| 20260505183841 | 83 | 232 | 2.6 | 9.6 | 0.00 | 0.00 | 0.00 | 63 | 1002.6 |
| 20260505182901 | 84 | 227 | 3.5 | 8.7 | 0.00 | 0.00 | 0.00 | 63 | 1002.8 |
| 20260505181920 | 84 | 265 | 2.6 | 9.6 | 0.00 | 0.00 | 0.00 | 65 | 1002.6 |
| 20260505180938 | 84 | 263 | 2.6 | 9.6 | 0.00 | 0.00 | 0.00 | 66 | 1002.7 |
| 20260505175912 | 83 | 211 | 2.6 | 9.6 | 0.00 | 0.00 | 0.00 | 65 | 1002.8 |
| 20260505174911 | 83 | 224 | 2.6 | 7.8 | 0.00 | 0.00 | 0.00 | 66 | 1002.8 |
| 20260505173903 | 82 | 236 | 2.6 | 7.0 | 0.00 | 0.00 | 0.00 | 70 | 1002.7 |
| 20260505172916 | 81 | 208 | 2.6 | 7.0 | 0.00 | 0.00 | 0.00 | 69 | 1002.7 |
| 20260505171931 | 81 | 212 | 1.7 | 7.0 | 0.00 | 0.00 | 0.00 | 68 | 1002.8 |
| 20260505170906 | 80 | 256 | 2.6 | 9.6 | 0.00 | 0.00 | 0.00 | 70 | 1002.8 |
| 20260505165832 | 79 | 238 | 2.6 | 9.6 | 0.00 | 0.00 | 0.00 | 70 | 1002.7 |
| 20260505164815 | 79 | 253 | 2.6 | 7.8 | 0.00 | 0.00 | 0.00 | 70 | 1002.8 |
| 20260505163826 | 79 | 188 | 2.6 | 8.7 | 0.00 | 0.00 | 0.00 | 71 | 1002.8 |
| 20260505162808 | 78 | 225 | 1.7 | 9.6 | 0.00 | 0.00 | 0.00 | 71 | 1002.7 |
| 20260505161754 | 78 | 232 | 2.6 | 9.6 | 0.00 | 0.00 | 0.00 | 71 | 1002.7 |
| 20260505160809 | 77 | 227 | 2.6 | 8.7 | 0.00 | 0.00 | 0.00 | 72 | 1002.7 |
| 20260505152546 | 77 | 271 | 3.5 | 10.4 | 0.00 | 0.00 | 0.00 | 72 | 1002.7 |
| 20260505151548 | 77 | 229 | 1.7 | 8.7 | 0.00 | 0.00 | 0.00 | 74 | 1002.5 |
| 20260505150512 | 76 | 236 | 2.6 | 8.7 | 0.00 | 0.00 | 0.00 | 76 | 1002.5 |
| 20260505140145 | 74 | 244 | 0.9 | 7.0 | 0.00 | 0.00 | 0.00 | 78 | 1002.6 |
| 20260505124914 | 71 | 146 | 1.7 | 10.4 | 0.00 | 0.00 | 0.00 | 81 | 1002.2 |
| 20260505123903 | 71 | 242 | 0.9 | 7.8 | 0.00 | 0.00 | 0.00 | 81 | 1002.1 |
| 20260505122901 | 71 | 219 | 1.7 | 7.0 | 0.00 | 0.00 | 0.00 | 81 | 1001.9 |
| 20260505121846 | 71 | 144 | 1.7 | 7.0 | 0.00 | 0.00 | 0.00 | 81 | 1001.8 |
| 20260505120837 | 71 | 236 | 0.9 | 7.8 | 0.00 | 0.00 | 0.00 | 81 | 1001.8 |
| 20260505115850 | 71 | 243 | 0.9 | 7.8 | 0.00 | 0.00 | 0.00 | 81 | 1001.8 |
| 20260505114852 | 71 | 237 | 0.9 | 6.1 | 0.00 | 0.00 | 0.00 | 81 | 1001.7 |
| 20260505113846 | 71 | 217 | 1.7 | 9.6 | 0.00 | 0.00 | 0.00 | 81 | 1001.5 |
| 20260505112831 | 71 | 122 | 1.7 | 7.0 | 0.00 | 0.00 | 0.00 | 81 | 1001.5 |
| 20260505111834 | 71 | 207 | 0.9 | 7.0 | 0.00 | 0.00 | 0.00 | 81 | 1001.5 |
| 20260505110817 | 70 | 138 | 0.9 | 5.2 | 0.00 | 0.00 | 0.00 | 81 | 1001.6 |
| 20260505100528 | 71 | 218 | 1.7 | 10.4 | 0.00 | 0.00 | 0.00 | 79 | 1001.3 |
| 20260505095507 | 72 | 173 | 2.6 | 10.4 | 0.00 | 0.00 | 0.00 | 78 | 1001.4 |
| 20260505094459 | 72 | 248 | 2.6 | 8.7 | 0.00 | 0.00 | 0.00 | 78 | 1001.4 |
| 20260505093509 | 72 | 220 | 1.7 | 8.7 | 0.00 | 0.00 | 0.00 | 78 | 1001.4 |
| 20260505092531 | 72 | 150 | 2.6 | 8.7 | 0.00 | 0.00 | 0.00 | 78 | 1001.6 |
| 20260505091456 | 72 | 240 | 2.6 | 7.8 | 0.00 | 0.00 | 0.00 | 77 | 1001.6 |
| 20260505090419 | 72 | 217 | 2.6 | 7.0 | 0.00 | 0.00 | 0.00 | 77 | 1001.8 |
| 20260505085412 | 73 | 188 | 1.7 | 7.8 | 0.00 | 0.00 | 0.00 | 76 | 1001.9 |
| 20260505083259 | 73 | 191 | 2.6 | 8.7 | 0.00 | 0.00 | 0.00 | 75 | 1001.9 |
| 20260505082304 | 73 | 163 | 1.7 | 8.7 | 0.00 | 0.00 | 0.00 | 75 | 1001.8 |
| 20260505081316 | 73 | 198 | 1.7 | 8.7 | 0.00 | 0.00 | 0.00 | 74 | 1001.9 |
| 20260505075137 | 74 | 140 | 1.7 | 10.4 | 0.00 | 0.00 | 0.00 | 72 | 1002.0 |
| 20260505074114 | 74 | 207 | 1.7 | 7.8 | 0.00 | 0.00 | 0.00 | 72 | 1002.2 |
| 20260505073122 | 74 | 111 | 1.7 | 11.3 | 0.00 | 0.00 | 0.00 | 71 | 1002.5 |
| 20260505072125 | 74 | 238 | 1.7 | 11.3 | 0.00 | 0.00 | 0.00 | 71 | 1002.7 |
| 20260505071136 | 74 | 144 | 1.7 | 7.0 | 0.00 | 0.00 | 0.00 | 71 | 1002.9 |
| 20260505070112 | 74 | 67 | 1.7 | 11.3 | 0.00 | 0.00 | 0.00 | 70 | 1002.9 |
| 20260505065114 | 74 | 248 | 1.7 | 11.3 | 0.00 | 0.00 | 0.00 | 69 | 1003.1 |
| 20260505064048 | 75 | 239 | 1.7 | 7.0 | 0.00 | 0.00 | 0.00 | 69 | 1003.2 |
| 20260505063105 | 75 | 188 | 1.7 | 7.0 | 0.00 | 0.00 | 0.00 | 69 | 1003.3 |
| 20260505062038 | 75 | 214 | 0.9 | 6.1 | 0.00 | 0.00 | 0.00 | 68 | 1003.3 |
| 20260505061045 | 75 | 181 | 1.7 | 7.0 | 0.00 | 0.00 | 0.00 | 68 | 1003.4 |
| 20260505055044 | 74 | 161 | 0.9 | 4.3 | 0.00 | 0.00 | 0.00 | 69 | 1003.4 |
| 20260505054013 | 75 | 167 | 0.9 | 6.1 | 0.00 | 0.00 | 0.00 | 69 | 1003.4 |
| 20260505051905 | 75 | 148 | 1.7 | 7.8 | 0.00 | 0.00 | 0.00 | 68 | 1003.4 |